Theta_e
332 333 330 330 329 328 326 325 323 321 323 324 323 319 319 318 315 312 309 307 305 306 304 303 303 302 303 304 303 302 302 302 302 303 305 306 306 306 307 311 314 317 320 324 328 331 330 327 327 327 327 326 325 324 324 325 326 324 324 322 321 322 320 319 318 318 318 318 319 320 320 320 321 321 322 324 326 327 328 328 329 329 330 330 331
333 332 332 330 328 327 327 324 321 320 322 321 320 321 320 316 314 312 310 308 307 304 303 305 303 302 302 303 302 301 301 301 301 301 302 304 305 306 305 308 310 314 317 320 324 327 330 332 328 327 327 328 326 325 325 324 326 326 324 323 323 321 320 320 319 318 318 318 318 318 319 320 319 320 321 321 324 325 326 326 326 327 327 328 328
332 331 331 330 326 325 326 325 324 322 322 323 317 319 319 318 316 314 312 310 308 302 302 304 304 303 300 302 301 300 301 300 300 300 301 302 304 305 306 303 306 309 313 317 321 324 327 331 332 333 333 327 328 326 326 325 324 325 326 325 324 323 322 321 319 318 318 317 317 318 318 318 318 319 320 320 321 323 323 323 323 324 326 325 325
328 327 329 326 326 326 327 324 323 320 319 320 318 317 317 315 313 313 311 310 307 303 302 305 305 302 301 301 300 301 300 300 300 300 300 301 302 304 305 305 302 306 310 314 318 320 323 326 329 330 331 332 329 327 326 325 324 324 325 325 326 322 324 322 320 319 319 318 317 317 317 317 318 318 318 319 320 323 321 321 321 321 322 323 323
328 326 324 326 325 324 323 323 322 319 317 317 316 315 313 312 310 310 309 308 309 306 303 304 305 303 301 300 300 301 300 299 300 300 300 301 301 302 304 305 305 304 306 309 312 316 319 323 325 328 329 330 331 331 328 327 325 325 324 325 325 324 325 323 320 319 319 318 318 317 317 317 318 318 317 318 318 320 319 319 319 320 320 320 320
323 323 323 325 323 322 322 320 319 318 317 316 315 313 314 314 311 312 310 311 311 310 309 311 308 303 303 300 300 300 299 299 299 299 299 300 301 301 303 304 305 306 307 306 307 310 315 319 321 323 326 327 329 330 331 328 327 326 324 325 324 325 325 327 321 321 320 319 318 318 318 318 317 317 318 317 318 318 319 318 318 318 319 320 320
319 319 318 318 319 318 316 316 315 314 314 313 314 313 315 314 310 312 309 309 308 306 307 308 306 306 303 300 300 299 299 299 298 299 299 300 299 300 301 303 304 305 306 307 305 306 308 313 317 320 323 325 326 327 329 330 327 327 326 326 325 325 324 322 324 323 321 319 319 318 317 317 317 317 317 318 317 317 318 318 317 317 317 318 319
316 317 316 316 315 314 312 312 313 313 312 312 312 312 310 310 307 309 310 310 306 307 302 304 302 302 300 299 298 298 299 298 299 299 298 297 298 299 300 302 303 304 304 306 307 306 304 308 312 316 318 319 321 323 326 328 329 326 327 327 328 328 328 324 325 323 323 320 319 318 317 316 316 316 316 317 318 317 317 317 317 317 317 317 317
312 313 313 312 312 311 311 311 311 311 310 310 308 308 308 307 305 303 304 306 304 304 304 301 300 300 299 298 298 297 298 298 298 298 297 298 298 298 299 301 301 301 305 305 306 306 304 304 308 310 311 312 316 320 322 325 327 327 327 327 327 325 325 324 323 324 323 321 319 318 317 316 316 316 316 316 317 317 317 317 317 316 317 317 317
310 311 310 310 310 310 310 311 311 310 309 308 307 307 307 307 306 302 302 303 302 300 300 300 299 299 299 299 298 297 298 297 297 297 297 298 298 298 299 299 300 301 302 303 304 304 305 305 304 305 305 307 312 316 319 321 323 326 328 327 325 325 324 324 323 323 322 321 321 320 317 317 316 316 316 316 316 317 317 317 317 317 316 316 317
307 308 307 307 307 308 308 309 310 310 309 308 307 306 305 305 306 303 300 300 300 298 297 296 297 298 298 298 297 297 298 296 296 296 297 297 297 298 298 298 298 299 299 300 301 302 303 304 305 305 307 304 308 312 314 317 318 319 322 324 326 326 325 324 323 323 322 322 321 320 318 317 317 316 316 316 316 316 317 316 316 316 316 316 316
303 305 305 305 305 305 305 306 307 306 305 304 304 303 303 303 302 303 302 299 297 296 296 295 297 298 299 298 297 297 297 296 296 296 296 296 296 296 296 297 297 297 297 298 299 300 301 302 301 303 304 304 304 306 308 311 312 314 317 320 323 325 325 325 324 322 322 321 321 320 319 318 317 317 316 316 316 316 316 316 316 316 316 316 316
299 301 301 301 302 302 302 303 305 304 303 302 302 302 302 302 301 300 302 301 299 295 296 295 297 301 299 300 300 297 295 296 295 295 296 296 295 295 295 295 297 297 297 297 298 298 299 300 301 302 302 303 303 302 303 305 306 309 313 316 318 321 323 325 324 323 322 321 320 320 319 319 318 317 317 316 316 316 316 316 316 316 316 316 315
297 298 298 299 299 299 299 299 301 302 302 302 301 300 301 301 302 303 299 298 297 294 296 299 298 294 295 297 298 299 298 294 295 296 296 296 295 294 295 295 296 296 296 296 297 297 298 299 300 300 301 302 302 303 303 303 303 305 309 313 314 317 319 322 323 323 322 321 321 321 319 319 319 318 317 317 317 317 316 317 316 316 316 316 316
294 294 295 295 296 296 296 297 297 298 297 297 297 297 298 298 299 299 300 299 295 296 295 296 295 294 294 293 295 296 301 297 295 297 298 294 293 294 295 295 295 295 295 295 296 297 297 297 297 298 299 300 301 301 301 300 300 299 303 306 309 312 314 316 319 322 324 322 321 321 320 320 320 318 318 318 318 318 317 317 317 316 316 315 316
291 292 293 293 294 294 295 295 295 296 296 295 295 295 296 296 297 297 298 297 297 297 295 295 294 295 297 294 294 290 294 295 292 296 294 293 293 295 294 295 294 295 295 296 297 296 296 296 295 296 296 297 298 298 299 300 299 297 297 299 301 305 310 312 314 317 321 324 323 321 321 321 320 320 319 319 319 318 318 318 318 318 317 316 316
289 289 289 290 291 291 292 293 293 294 295 294 294 294 295 295 295 296 296 295 295 295 297 297 296 295 294 293 293 292 293 292 291 296 293 296 297 295 294 294 295 295 295 296 296 295 295 295 296 295 295 295 296 296 297 297 298 298 297 294 295 300 304 309 311 312 314 318 321 322 322 321 321 322 322 320 319 320 319 318 318 317 317 317 316
288 288 288 288 288 289 289 289 290 291 292 292 293 293 293 293 294 295 294 295 295 294 294 296 295 295 295 293 294 291 289 289 290 292 295 296 294 293 295 295 293 294 294 294 296 296 295 295 295 296 296 295 295 295 296 296 296 296 297 298 298 300 302 304 308 310 312 313 315 319 322 322 321 322 323 321 321 320 319 319 318 317 316 317 316
287 287 288 288 288 288 288 288 288 289 289 290 290 290 291 292 293 293 293 294 295 293 292 293 295 295 295 295 293 292 291 289 288 288 289 293 293 296 297 297 293 293 295 295 295 295 295 295 295 296 295 295 295 295 295 295 295 295 297 299 302 303 304 305 305 307 310 311 312 314 317 320 321 321 321 321 322 320 320 319 318 318 317 316 317
287 287 287 287 287 287 287 287 287 288 288 288 288 289 290 291 291 291 292 292 292 292 292 292 291 292 293 293 293 294 293 292 291 289 287 285 290 294 293 294 295 295 295 295 295 295 295 295 295 295 295 295 295 295 295 295 295 295 295 298 302 304 305 305 306 306 307 309 311 312 313 315 318 321 321 321 321 322 320 319 319 318 317 317 317
287 287 287 287 287 287 287 287 287 287 287 287 288 288 288 288 289 289 289 290 290 291 291 291 291 291 292 292 292 292 292 292 291 290 288 287 288 290 291 293 294 295 295 295 294 294 294 294 295 294 294 295 295 295 294 294 294 295 295 297 301 305 306 307 306 306 307 307 308 309 311 312 313 315 318 321 323 322 321 320 319 318 318 317 316
286 287 287 287 287 287 286 286 286 286 286 286 287 287 287 287 288 288 288 288 289 289 289 289 290 290 290 291 290 290 291 291 291 290 290 289 287 287 289 289 288 291 294 294 295 296 295 294 294 294 294 295 295 295 295 294 294 295 295 295 298 302 304 304 305 305 306 307 307 308 309 311 312 313 314 316 318 321 322 321 320 320 319 317 316
286 286 286 287 286 286 286 286 286 286 286 286 285 285 286 286 287 287 287 286 286 287 288 288 288 289 289 289 289 289 289 288 289 289 288 287 287 288 289 289 288 288 292 294 293 294 294 294 293 294 294 294 295 295 294 294 293 293 293 294 296 298 299 300 302 303 304 305 306 307 307 308 309 311 313 313 314 315 318 322 321 321 319 318 317
285 285 285 286 286 285 286 285 285 285 285 285 285 285 286 286 286 285 286 286 286 286 286 286 286 286 287 287 287 288 289 288 289 289 288 288 287 286 287 288 288 289 291 291 293 293 294 294 294 294 294 294 294 294 294 294 294 292 292 293 295 297 300 302 304 303 304 304 305 306 306 306 307 308 310 313 313 313 314 316 320 321 321 320 318
284 284 285 285 285 284 284 284 284 285 285 285 285 285 285 285 285 284 285 285 285 285 284 285 285 285 285 286 287 287 287 288 288 288 288 288 287 285 287 288 285 286 289 289 289 291 292 294 294 294 294 293 294 294 294 294 293 293 292 293 294 295 296 298 299 300 301 302 303 305 306 307 306 307 308 310 312 314 314 313 314 318 321 321 320
283 284 284 284 284 284 284 284 284 284 284 284 284 284 285 284 284 284 284 285 284 285 284 285 285 285 286 285 285 286 286 287 287 287 287 286 286 286 285 286 286 285 288 287 288 288 289 290 292 292 292 293 293 294 293 293 293 292 291 291 293 293 294 296 298 299 300 301 302 302 303 304 306 306 306 309 310 312 314 314 314 314 317 321 321
283 284 284 284 284 283 283 283 283 283 283 283 283 283 284 283 283 283 283 284 283 284 283 284 284 284 284 284 285 285 285 286 287 286 287 287 286 286 285 282 283 285 284 285 285 286 287 289 291 293 293 293 293 293 293 293 292 291 290 292 293 292 293 295 297 299 300 301 301 302 302 302 303 304 305 306 308 309 311 313 314 314 315 317 320
283 283 283 283 283 282 283 282 283 282 282 282 282 282 282 282 282 282 282 283 282 283 283 283 283 283 283 284 284 284 285 285 286 286 286 287 287 287 286 284 282 280 283 283 284 283 289 288 287 288 291 292 293 293 291 290 292 291 290 292 293 293 293 294 297 299 299 299 300 301 302 302 303 303 304 304 305 306 307 308 310 311 312 312 314
282 283 282 282 282 282 281 281 281 281 281 281 281 281 281 281 281 281 281 282 282 282 282 282 282 282 282 283 283 283 283 284 285 285 285 286 286 286 286 284 284 281 280 280 282 282 285 287 286 289 287 289 290 291 290 292 292 291 294 293 293 293 293 294 296 298 299 299 300 300 301 301 302 303 303 304 304 304 305 306 307 308 308 308 311
281 281 281 280 280 280 280 280 280 280 280 280 280 280 280 280 280 280 280 281 280 281 281 281 281 282 282 282 282 282 283 283 283 283 284 284 284 285 285 285 285 282 281 280 280 284 284 286 287 287 289 288 288 291 292 291 291 292 293 293 293 293 293 294 296 297 298 300 300 300 301 301 301 302 303 303 304 304 305 304 305 307 309 309 309
279 279 279 279 279 279 279 279 279 279 279 279 279 279 279 279 279 279 280 280 279 279 280 280 280 281 280 280 281 281 282 282 282 282 283 283 283 284 284 285 284 284 282 281 279 283 286 283 286 287 286 287 288 288 289 290 291 291 291 292 292 292 291 292 293 294 296 297 297 298 299 300 300 301 301 302 304 305 305 305 304 305 308 309 309
277 277 277 277 277 277 277 277 277 277 277 277 278 277 277 277 277 278 278 278 278 278 278 279 280 280 279 279 279 280 280 281 281 281 281 282 282 282 282 283 283 284 283 282 280 280 285 284 285 286 287 286 287 287 287 289 290 289 290 291 291 289 290 291 291 292 293 294 296 297 298 299 299 300 300 301 302 303 304 305 305 305 306 308 309
276 276 276 276 276 276 276 276 275 276 275 276 276 276 276 276 276 276 276 277 276 277 277 277 278 278 278 278 278 279 280 279 280 280 280 281 281 281 281 282 282 282 282 281 280 280 283 286 285 285 286 286 285 287 286 287 288 289 289 290 290 290 290 290 290 290 292 293 294 295 296 297 298 299 299 300 301 301 302 303 304 305 305 307 308
275 274 274 275 274 275 274 274 274 274 274 274 274 274 274 274 274 275 275 275 275 275 275 275 276 277 277 277 277 278 279 279 279 279 279 280 280 280 280 280 280 281 282 281 280 280 279 283 283 285 285 286 284 287 286 285 286 287 287 288 289 290 289 289 289 290 290 292 293 294 295 296 297 298 299 299 300 301 302 302 303 303 305 306 306
274 273 273 273 273 273 273 273 273 273 273 273 273 273 273 273 273 273 274 273 273 273 274 274 275 275 275 275 276 277 278 277 277 278 278 278 279 279 279 280 279 280 281 281 280 278 279 279 282 282 283 284 284 284 285 286 286 287 286 286 287 288 289 289 289 289 290 292 293 295 295 296 297 297 298 298 299 300 300 301 301 302 303 305 306
272 272 272 272 272 272 271 272 272 271 271 271 271 272 272 272 272 272 272 272 273 273 273 273 274 274 274 274 274 275 275 274 275 275 276 277 277 278 278 278 279 279 280 280 280 279 279 278 280 281 282 282 282 284 285 286 285 285 286 286 287 287 287 288 288 289 289 291 293 294 295 295 296 296 297 297 298 298 299 300 301 301 302 303 304
271 271 271 271 271 271 270 270 270 270 270 270 270 270 271 271 271 271 272 272 272 273 273 273 273 273 273 273 273 274 274 273 274 274 275 275 275 276 276 277 277 278 278 279 279 280 278 277 278 280 281 282 282 283 284 283 283 284 285 285 286 286 286 287 287 288 289 290 291 292 293 294 294 295 296 296 297 298 299 299 299 300 300 301 302
270 269 269 269 269 269 269 269 269 269 269 269 269 269 270 270 271 271 272 272 272 272 272 273 273 273 273 273 273 273 273 273 273 274 274 274 274 275 275 276 277 277 278 278 279 279 278 278 278 278 280 280 280 281 283 283 282 282 283 284 285 285 285 285 286 287 287 288 288 289 290 291 292 293 294 295 296 297 297 298 299 299 299 298 299
268 268 268 268 268 268 268 268 268 268 268 268 268 268 269 270 271 271 272 272 272 272 272 272 273 273 273 273 273 273 273 273 272 273 273 274 274 275 275 276 276 276 276 277 277 277 277 277 277 278 278 280 280 279 282 283 283 282 281 281 281 283 284 284 284 287 288 288 289 289 290 290 290 290 291 292 294 295 296 297 297 298 298 298 298
266 266 266 266 267 267 267 267 267 267 267 267 267 268 269 270 271 272 272 272 272 272 272 272 272 272 272 272 272 272 272 272 273 273 273 273 274 274 274 275 275 275 275 275 275 276 276 276 276 276 277 278 279 281 282 282 281 281 282 281 279 281 282 284 284 284 286 286 286 287 289 290 290 291 291 292 293 293 293 294 295 296 295 297 298
265 266 266 266 265 265 266 266 266 266 266 266 266 268 270 271 272 272 272 271 271 271 271 272 272 272 272 272 272 272 273 274 275 275 275 275 273 272 273 274 273 273 274 274 274 275 275 275 275 276 276 276 277 278 278 278 278 278 281 281 280 281 282 282 283 285 285 285 286 287 287 288 288 288 289 289 290 291 291 292 293 293 294 296 297
264 265 265 265 265 264 264 265 265 265 265 265 266 271 273 272 272 272 272 271 272 271 271 271 271 271 271 271 272 273 273 273 273 274 274 275 275 274 273 273 273 272 272 271 271 272 272 272 273 275 274 275 276 277 277 278 280 280 280 280 279 280 281 281 282 284 285 285 284 284 286 288 287 287 288 287 289 289 289 290 290 292 292 294 295
263 263 264 264 264 264 264 264 263 264 264 264 269 272 273 274 273 272 271 271 271 271 270 270 269 270 270 271 271 271 271 271 271 273 274 274 274 275 275 275 275 273 272 271 271 272 271 271 272 272 272 272 274 276 276 277 279 279 280 280 280 280 279 278 278 282 286 285 284 283 284 287 287 285 286 287 288 288 289 289 290 291 291 293 294
262 263 263 263 263 263 263 263 263 263 263 266 269 271 272 273 274 272 272 271 270 270 270 270 270 269 269 269 269 269 269 270 270 271 271 273 273 273 274 274 275 275 276 273 272 271 271 271 271 271 272 271 272 274 274 275 275 276 276 276 276 277 277 277 278 278 283 286 283 282 281 285 286 285 285 286 288 289 288 289 290 291 292 293 293
262 262 262 262 262 262 262 262 262 262 262 265 268 271 272 273 274 273 271 271 270 270 270 269 269 268 268 268 268 268 269 271 270 270 270 269 271 272 273 273 274 274 275 275 276 273 273 272 271 271 272 273 272 273 275 275 276 275 275 275 276 276 276 275 275 276 279 283 282 281 279 282 285 284 284 286 288 288 288 289 290 291 292 293 293
261 261 261 261 261 261 261 261 261 261 262 264 269 271 272 272 273 273 271 271 270 269 269 268 268 268 268 267 267 267 268 269 269 269 269 269 269 270 270 271 271 272 274 275 275 275 275 273 272 271 273 274 273 274 276 277 275 274 274 274 276 276 276 276 278 279 280 282 280 280 278 280 283 283 282 284 287 287 287 288 290 291 292 293 293
260 260 260 259 260 260 260 260 260 260 261 266 269 270 271 272 273 273 270 269 268 268 268 268 268 268 268 268 268 268 268 268 269 270 270 270 270 270 270 270 271 271 272 272 273 273 273 274 273 273 274 274 275 275 276 276 276 276 276 276 276 276 277 279 279 280 280 282 282 280 276 280 283 282 282 283 285 286 287 288 290 291 291 292 293
260 260 260 260 259 259 259 259 259 259 260 265 267 269 271 272 273 270 269 268 267 267 268 268 268 268 268 268 268 268 268 268 271 273 273 272 271 270 270 271 271 272 272 275 276 277 276 275 275 275 275 275 278 277 277 277 277 278 278 278 278 277 276 275 275 278 279 282 283 280 278 279 282 281 282 284 285 284 286 286 288 290 291 292 292
259 259 258 259 259 259 258 258 258 259 259 262 267 269 270 271 271 268 268 268 267 267 267 268 269 269 269 269 269 268 269 269 271 274 275 275 272 271 271 271 272 272 272 274 277 278 278 279 279 280 280 280 280 281 281 281 279 278 276 274 273 274 273 271 272 274 274 278 282 282 280 279 281 282 281 283 284 284 284 285 286 288 290 291 292
258 258 258 258 258 258 258 258 258 258 259 262 266 268 270 271 270 268 268 267 267 267 268 269 269 269 269 270 271 270 270 270 273 275 276 275 273 273 272 271 271 271 272 274 274 275 277 278 279 279 279 280 280 280 280 280 279 278 275 272 273 274 271 271 270 272 273 276 278 281 278 278 280 282 281 282 283 284 284 285 286 286 288 289 291
257 258 257 257 257 257 258 258 259 259 259 260 265 267 269 270 270 268 268 268 267 267 268 268 269 269 269 271 272 272 272 273 276 277 277 276 274 273 273 272 271 271 272 273 273 273 273 273 273 274 275 276 276 276 276 278 279 278 276 274 274 273 271 271 271 271 270 272 276 280 276 277 279 281 281 279 278 282 284 284 285 285 286 286 286
Wind_Speed
7 7 5 5 4 4 4 3 1 0 2 2 3 5 4 4 4 4 3 2 2 2 1 1 1 1 1 1 1 1 1 2 2 2 2 2 2 3 7 9 11 13 13 14 14 12 10 8 8 7 7 6 5 4 4 7 8 2 5 2 1 5 4 2 2 1 2 3 4 5 5 4 4 4 4 3 4 5 5 6 6 7 10 9 7
6 6 5 6 6 4 5 5 6 5 4 5 6 6 5 3 3 4 4 3 2 1 0 0 1 1 1 1 1 1 1 1 2 2 2 2 2 2 4 7 8 10 11 13 14 14 13 12 9 8 8 9 8 5 6 6 7 5 4 5 6 6 5 4 4 1 2 2 1 2 4 4 3 3 4 4 3 3 5 5 6 5 7 9 10
4 5 4 2 3 5 4 3 4 2 2 3 3 3 2 2 4 5 3 3 2 1 1 0 0 1 1 1 1 1 1 1 1 1 2 2 2 2 3 5 6 7 9 11 12 13 13 12 13 13 13 9 9 8 8 7 7 7 8 6 6 9 6 6 6 6 3 1 0 2 3 3 2 3 3 4 3 5 7 5 5 6 4 6 8
4 4 5 5 4 2 3 3 2 3 3 1 1 2 2 2 3 3 3 3 3 2 1 1 0 0 0 1 0 1 1 1 1 1 1 1 1 2 2 3 4 6 7 8 10 11 12 13 13 13 11 12 10 10 10 7 6 7 9 9 7 5 8 7 7 6 5 3 2 3 2 2 3 2 1 3 3 6 4 3 5 4 4 3 4
1 3 3 3 3 2 0 1 2 2 2 4 4 3 3 3 3 2 2 2 2 2 1 1 0 0 0 1 1 1 1 1 1 2 2 1 1 1 2 2 3 5 5 6 8 9 11 11 13 13 13 13 13 13 11 9 8 8 8 9 10 6 8 8 8 7 7 4 1 1 3 3 4 3 2 2 4 4 1 0 1 2 3 3 1
7 7 7 4 3 3 5 5 4 2 3 3 3 2 2 2 2 2 2 2 2 1 1 1 1 0 1 1 1 1 1 2 2 2 2 2 1 2 2 2 2 3 3 5 6 9 10 11 12 12 13 13 13 12 13 11 9 10 8 9 8 9 9 9 11 12 7 5 4 3 4 5 4 4 5 4 4 5 5 5 4 5 5 6 6
7 7 7 7 7 6 7 6 5 5 5 6 5 3 2 1 1 1 1 1 1 1 0 0 1 2 1 1 2 1 1 2 2 2 2 2 1 2 2 2 2 2 3 3 5 6 8 11 11 12 12 12 13 14 13 13 11 10 11 11 12 12 8 2 14 10 8 7 6 4 4 4 4 5 5 7 4 5 6 6 6 5 5 6 8
9 8 8 7 6 7 5 5 5 5 6 5 6 6 5 5 5 5 5 3 4 3 3 3 3 4 3 3 2 2 2 2 3 3 2 2 2 2 2 2 2 2 2 2 2 3 5 8 10 12 12 12 13 13 13 13 12 12 10 11 12 13 15 9 11 7 9 9 8 6 4 2 4 3 5 7 8 6 6 6 6 6 6 6 6
11 10 8 8 8 8 6 6 6 6 5 5 5 4 5 5 5 4 3 3 4 4 3 3 3 3 3 3 3 3 4 3 3 2 1 3 3 3 3 3 2 3 2 2 2 2 2 5 8 9 10 11 12 13 13 14 12 12 12 13 12 13 16 12 8 11 11 6 8 8 7 4 4 5 6 6 9 9 7 7 6 7 7 7 7
11 9 9 10 7 8 8 8 6 6 6 6 6 3 5 4 4 3 3 3 2 2 2 1 1 2 2 3 3 2 3 3 3 3 3 3 3 3 3 3 2 3 3 3 3 3 3 4 6 6 6 8 10 11 13 14 14 14 13 13 13 13 14 12 11 12 11 10 9 8 5 5 6 6 7 7 8 10 9 8 8 8 8 8 8
11 11 11 9 9 9 8 8 6 6 7 5 4 4 6 5 4 3 3 3 2 1 1 1 3 3 3 3 2 4 3 3 2 3 3 3 4 4 2 3 2 2 3 3 3 4 4 4 4 4 4 6 9 10 11 12 13 14 14 14 14 13 14 15 13 13 13 11 11 9 7 7 7 7 8 10 9 9 10 9 9 9 9 9 9
11 10 10 9 10 9 10 10 8 8 8 9 8 7 7 6 6 5 4 3 4 2 2 3 3 4 4 3 3 4 4 2 3 2 2 3 3 3 3 3 3 3 2 2 2 2 3 3 3 4 4 5 8 9 10 10 10 12 13 14 15 14 15 15 16 15 13 12 13 12 11 11 9 9 10 9 10 11 10 11 10 11 11 11 11
9 10 10 10 9 9 9 10 9 8 10 10 8 7 5 4 3 4 4 5 5 4 3 1 3 3 0 3 4 1 4 2 2 2 2 3 2 2 2 3 3 3 2 3 3 3 3 3 3 3 4 3 4 5 8 9 9 10 13 14 15 15 15 15 16 17 15 13 13 14 12 12 12 12 11 10 11 11 12 12 12 12 12 12 12
9 9 10 9 9 9 9 8 7 8 8 7 6 5 7 7 4 2 2 4 3 2 4 3 3 4 5 6 2 4 1 2 2 2 3 2 2 1 2 3 3 2 2 2 3 3 3 3 3 4 4 4 4 4 4 5 6 8 11 13 15 15 15 15 16 16 17 16 14 15 14 14 14 16 11 11 12 12 12 14 14 13 14 13 13
10 10 9 8 8 8 7 8 9 7 7 8 8 9 7 7 7 6 4 4 2 3 6 5 3 3 3 2 3 5 2 2 1 4 5 2 1 1 1 3 3 2 2 3 3 4 3 3 4 4 5 4 4 4 5 6 7 7 10 12 12 14 15 16 16 17 17 18 17 16 16 15 17 16 14 14 15 14 12 13 15 15 15 14 14
11 11 10 10 10 10 9 9 9 8 7 8 9 9 9 8 8 8 5 6 6 5 4 4 2 5 4 3 3 1 5 2 6 7 3 2 1 1 1 2 2 2 2 3 3 3 3 3 5 5 5 5 4 4 5 5 8 9 10 10 11 13 15 16 16 17 18 18 19 18 17 18 18 20 17 18 16 15 13 11 13 15 16 15 14
10 11 10 10 10 9 9 9 9 8 7 8 8 7 7 7 7 6 7 5 5 5 5 5 6 5 4 3 3 1 2 6 9 6 1 4 5 3 2 1 1 2 2 3 3 3 3 4 4 5 5 5 5 5 5 6 6 6 8 11 11 11 13 16 17 18 18 19 19 19 19 19 19 20 21 19 15 17 15 14 15 14 15 16 16
10 10 10 10 10 10 9 10 9 9 8 8 7 8 9 9 8 6 7 7 3 5 6 7 5 6 5 2 2 4 5 5 5 6 3 5 4 2 1 2 1 2 2 3 4 4 2 4 4 5 5 5 5 5 5 6 6 6 6 7 12 12 13 15 17 18 19 19 19 20 21 21 21 20 21 17 18 18 17 17 16 15 14 16 17
11 10 10 10 10 9 9 9 9 8 8 8 9 9 8 8 8 8 7 6 6 7 7 6 3 5 7 4 3 2 2 4 4 5 10 2 2 4 4 3 2 2 4 5 5 4 4 3 5 5 5 5 5 6 5 6 7 9 12 14 15 15 15 16 16 17 19 19 19 20 21 21 21 21 22 19 20 20 19 19 18 16 15 15 17
10 10 10 10 10 10 9 9 9 9 8 8 8 7 7 8 8 8 7 8 8 7 6 6 6 5 5 6 6 3 1 3 4 4 5 10 10 2 2 2 4 6 6 6 5 5 5 4 5 5 4 5 5 5 6 6 6 7 7 13 16 16 16 17 17 16 17 18 19 20 21 22 22 22 21 22 20 22 21 20 19 17 16 15 17
9 10 10 10 9 9 9 10 10 9 8 8 8 8 9 9 9 9 9 8 7 6 6 6 6 6 6 6 5 5 5 1 2 1 4 8 11 11 10 7 7 4 4 3 4 4 5 6 5 6 6 6 5 5 6 6 6 6 7 13 16 16 17 18 17 17 17 17 18 19 20 21 22 22 22 22 23 21 23 21 19 18 16 16 17
8 9 9 9 9 9 9 10 9 9 8 9 9 9 9 8 8 8 8 9 7 7 7 5 5 5 5 4 5 6 4 4 2 6 3 3 7 12 12 13 14 5 4 7 6 6 5 5 5 5 6 6 5 5 5 6 6 5 7 13 14 16 17 17 17 18 17 17 17 18 19 20 21 21 22 23 23 20 21 23 20 20 18 17 17
7 9 9 9 8 8 8 8 8 8 8 9 9 8 7 7 6 7 9 9 7 7 7 7 5 6 7 6 5 5 4 4 6 5 4 5 7 8 11 9 9 15 5 5 5 6 6 5 6 6 6 6 6 5 5 6 8 9 12 12 14 15 16 16 17 18 19 19 20 20 20 19 20 20 21 22 22 23 21 21 24 22 20 18 17
8 8 9 10 8 9 8 8 8 9 9 7 7 7 6 6 7 7 7 7 7 6 6 7 8 5 6 5 4 4 3 4 5 5 5 6 5 8 9 11 8 5 7 8 6 7 4 5 5 6 6 5 6 5 6 6 7 12 10 12 12 14 16 17 17 18 18 19 20 20 20 20 20 20 20 20 21 22 22 22 21 23 24 21 20
8 8 9 10 8 9 9 9 8 8 8 8 8 9 8 7 7 6 6 8 7 6 6 6 5 6 5 4 3 4 3 3 4 4 5 4 5 7 7 6 10 11 4 4 6 2 6 6 5 5 5 5 5 5 5 5 6 9 10 9 10 12 15 16 17 18 19 20 20 20 20 20 20 20 20 21 21 21 22 23 23 23 21 24 23
7 8 7 7 7 7 7 8 7 7 8 7 8 7 7 7 7 7 7 6 6 6 5 5 4 5 4 5 4 4 4 4 4 4 5 6 6 6 9 7 8 11 7 4 2 5 1 2 3 3 3 5 5 4 5 5 6 9 9 8 9 11 13 15 16 17 18 19 19 20 20 19 20 20 20 21 21 21 21 22 23 23 24 23 24
6 5 6 7 7 6 7 7 7 7 7 7 7 7 7 6 6 6 6 6 6 6 6 6 6 7 7 6 5 4 4 4 4 5 4 5 6 7 7 11 9 6 8 7 9 6 9 3 6 5 5 5 4 4 4 3 6 10 9 6 6 10 11 14 16 17 18 18 19 19 19 19 20 21 21 21 22 21 21 21 21 23 23 25 24
5 6 6 6 7 7 7 8 7 7 8 8 7 7 7 6 6 6 7 5 7 8 6 6 6 8 7 6 6 6 6 6 5 6 5 6 6 6 5 6 8 13 9 11 6 8 4 5 2 6 5 3 3 3 3 4 4 8 7 5 5 7 9 13 15 16 17 17 18 19 19 19 20 20 20 21 21 21 22 21 20 20 19 19 19
6 5 6 6 7 6 6 7 7 7 7 7 7 7 6 6 6 7 7 7 6 7 6 6 6 6 6 7 6 7 7 6 6 6 6 6 5 5 5 6 7 9 10 10 12 8 3 3 6 2 4 4 4 2 3 3 5 8 6 6 6 7 8 14 16 17 17 18 18 19 19 19 20 20 20 20 21 22 22 21 21 20 21 21 22
5 5 5 6 6 6 6 6 6 7 7 7 7 7 7 6 6 6 6 6 6 5 6 6 7 6 6 6 6 6 6 7 7 7 7 7 7 7 6 6 5 8 9 11 15 7 11 8 6 6 2 4 4 5 5 7 10 12 8 9 8 8 11 15 16 17 18 19 20 19 20 20 20 20 20 20 20 21 22 23 22 22 21 22 24
5 6 6 6 6 6 6 6 6 6 6 6 6 6 6 5 6 5 6 6 6 6 6 6 6 6 7 7 7 6 7 7 8 7 7 7 7 7 7 6 7 8 10 10 14 10 3 11 4 3 7 8 9 10 8 6 9 11 8 8 8 12 15 11 13 16 17 19 19 19 20 21 21 21 21 21 21 22 22 22 22 23 22 23 23
5 5 5 5 6 5 5 5 6 6 7 6 7 7 6 6 6 6 7 7 7 7 7 6 6 6 7 8 7 7 8 8 8 7 8 7 7 8 8 8 8 8 8 11 13 18 7 9 14 10 10 11 9 10 11 8 8 10 8 7 9 11 8 8 13 14 15 17 17 18 19 20 21 22 22 22 22 23 22 22 22 23 23 23 23
5 5 6 6 6 6 6 6 7 7 7 7 6 6 6 6 6 6 7 7 7 7 7 8 7 8 8 8 9 8 9 9 8 8 8 9 9 8 8 8 9 8 8 10 14 17 12 6 10 11 8 9 12 8 12 9 8 7 8 6 8 7 7 7 8 13 14 16 17 18 19 20 21 21 21 22 22 23 23 23 23 22 22 22 22
5 5 6 5 5 6 6 6 6 6 6 7 7 6 7 7 7 5 6 7 8 8 7 8 8 7 8 9 9 9 9 9 10 9 9 9 9 10 9 8 9 9 7 10 13 13 19 10 9 10 10 7 13 8 9 12 10 9 10 10 7 7 7 6 7 8 14 16 17 19 19 20 20 21 22 21 22 22 23 22 21 19 21 22 21
4 5 5 5 5 5 5 5 5 5 6 6 6 6 6 7 7 7 7 7 8 8 8 8 8 8 8 8 9 8 7 9 10 9 9 10 9 10 11 10 11 11 10 10 11 15 17 16 10 12 10 9 11 12 8 9 11 10 12 11 9 9 7 7 7 6 9 16 19 20 20 20 20 21 21 22 22 22 22 22 22 20 19 20 20
5 5 5 5 5 5 5 5 5 6 6 6 6 5 6 7 7 7 7 7 7 7 8 9 9 9 9 9 8 9 10 10 10 9 9 9 9 10 11 11 11 12 11 11 12 13 15 17 14 10 10 11 11 12 10 9 10 10 9 11 10 9 9 7 7 7 9 17 19 20 20 21 21 21 21 21 21 22 22 22 22 21 20 20 19
5 4 4 5 5 5 5 5 6 6 6 6 7 6 6 6 7 7 8 7 7 8 8 8 8 9 9 9 10 9 9 10 10 8 9 11 10 10 11 11 11 11 11 11 12 13 15 17 17 12 11 12 11 12 12 12 12 11 10 10 9 9 10 9 8 8 11 17 19 19 19 20 21 21 22 22 22 22 22 22 22 22 21 20 20
4 4 4 4 4 5 5 5 5 5 5 6 6 6 7 7 7 7 7 8 8 8 8 8 8 8 8 9 9 9 9 10 11 10 10 12 11 11 12 11 11 11 12 13 12 13 14 16 16 17 13 13 14 11 11 10 12 14 12 10 10 9 9 11 8 7 7 6 6 7 11 14 17 20 22 22 23 23 23 22 22 23 21 20 20
4 3 4 4 4 4 4 5 5 5 6 6 6 7 7 7 7 8 8 9 9 8 8 9 9 8 9 9 9 9 10 10 11 11 12 13 11 12 12 12 12 12 12 12 12 13 14 15 16 15 15 13 12 15 11 11 12 12 14 13 14 9 9 9 10 7 5 6 9 13 13 12 12 11 14 19 22 23 23 22 22 22 21 20 20
4 4 5 5 4 4 4 4 5 5 6 6 6 6 7 8 9 10 9 9 10 10 10 10 10 10 10 10 10 9 10 10 11 12 12 12 12 13 12 11 12 13 13 13 13 12 13 14 15 16 14 14 13 11 11 11 12 12 9 10 14 13 11 9 10 11 8 8 6 6 7 11 13 16 20 21 23 23 22 21 22 21 20 19 19
3 4 4 4 4 4 4 4 5 5 5 5 5 6 10 11 9 10 10 10 11 11 11 11 11 10 10 10 10 10 11 15 18 16 16 15 12 13 13 12 13 13 13 12 12 12 12 13 15 14 14 14 13 12 12 11 11 12 12 11 14 15 13 13 13 11 9 11 10 8 7 7 8 8 8 9 9 13 15 19 17 19 19 19 19
3 4 4 4 4 5 5 5 5 4 5 4 7 15 14 11 11 9 10 10 10 11 11 11 11 11 11 10 11 16 17 18 18 18 18 18 18 14 13 13 12 13 12 13 13 13 13 14 14 14 14 14 13 12 12 12 13 14 16 14 14 15 15 13 14 10 7 8 10 12 8 7 8 9 8 8 8 8 8 9 9 11 14 20 23
4 4 4 4 5 5 5 6 6 5 5 5 14 16 16 16 12 10 10 11 10 10 10 11 11 12 11 12 11 13 14 15 14 17 18 19 18 19 20 20 17 14 13 13 13 13 13 14 14 15 15 17 16 14 14 13 12 13 12 12 12 14 15 14 15 12 6 6 9 9 9 5 6 8 7 8 7 7 8 9 13 17 19 21 21
4 4 4 4 5 5 5 5 6 6 6 10 16 16 17 16 15 11 10 10 10 10 10 11 11 11 12 12 11 10 11 12 13 14 16 18 19 19 19 19 18 19 18 14 14 13 13 14 15 15 14 15 16 14 14 14 14 14 14 15 14 14 15 15 14 15 9 9 12 14 15 10 7 8 10 8 8 6 8 12 16 19 20 21 21
3 4 4 5 5 5 5 6 7 7 7 12 16 17 17 17 17 14 9 9 10 10 10 11 11 11 11 12 12 11 10 16 14 13 13 14 16 19 19 18 18 18 18 20 20 16 14 15 15 16 13 14 16 14 12 14 15 17 15 14 13 14 15 16 16 17 17 12 15 16 18 14 9 9 13 10 8 7 8 13 19 19 20 21 22
3 4 4 5 4 5 6 6 7 7 8 11 16 17 16 17 17 15 10 10 9 10 11 11 10 11 12 12 12 12 12 13 13 14 13 13 14 13 12 13 13 16 19 21 22 24 20 15 15 16 15 13 15 15 15 14 15 14 14 14 13 14 15 17 19 18 17 13 14 15 20 17 12 12 16 14 10 10 9 12 16 19 21 22 22
4 4 4 4 4 4 5 6 6 7 7 14 15 17 16 17 17 14 8 9 9 9 10 11 11 12 12 12 12 13 13 13 13 15 15 15 13 11 12 12 12 13 13 14 14 13 12 12 14 16 17 16 16 17 15 14 15 16 16 16 17 16 17 17 17 17 18 14 15 13 17 18 13 13 15 15 11 10 8 12 17 19 21 22 23
2 3 3 3 4 5 5 6 6 7 8 14 16 16 17 17 18 10 8 9 9 9 10 11 12 12 12 12 12 13 14 15 18 23 21 17 14 14 15 14 11 12 12 14 18 18 18 18 17 18 17 18 21 18 17 15 14 13 12 12 11 11 12 13 15 12 12 11 13 12 13 17 14 14 14 13 12 14 11 10 13 20 21 23 23
4 3 4 4 4 5 5 5 7 8 7 11 16 17 17 18 14 8 9 8 9 10 11 12 12 12 11 12 13 14 15 16 20 24 24 23 15 14 13 12 11 11 12 12 19 25 27 28 29 29 29 27 26 26 26 27 20 16 13 14 12 10 12 14 13 11 11 10 8 9 12 16 13 13 15 14 13 13 13 12 10 15 20 22 23
4 4 4 4 3 4 5 6 6 8 7 11 17 17 18 17 15 10 9 9 10 11 11 11 10 11 14 21 21 17 17 17 22 25 25 21 14 13 13 14 15 13 13 11 9 12 23 27 28 28 28 27 27 28 27 25 24 20 13 15 12 11 14 12 15 13 12 12 11 10 12 15 15 12 11 13 15 10 12 12 11 10 15 18 23
4 4 4 4 4 3 4 6 10 10 8 10 15 17 18 17 14 9 8 9 9 10 10 11 12 12 14 15 21 20 18 20 26 25 26 21 15 14 13 13 13 12 11 11 12 12 10 10 11 13 14 18 17 15 15 23 24 21 16 15 13 14 16 14 13 13 14 13 8 9 13 14 15 12 11 10 14 12 10 9 9 9 9 8 11
Wind_Direction
173 181 168 182 156 152 157 141 69 12 178 147 116 128 171 169 145 131 125 117 103 117 93 88 79 52 37 44 16 7 356 345 346 338 341 336 336 334 337 342 339 335 332 328 322 319 311 297 269 273 282 273 260 251 244 272 288 191 174 207 275 111 107 128 90 55 3 43 8 341 335 334 340 345 336 9 43 43 41 41 42 44 44 42 36
189 181 175 175 172 155 162 171 164 170 177 175 178 172 162 161 140 122 130 141 140 114 83 108 83 66 44 18 24 359 343 349 337 338 332 326 327 320 334 341 342 338 335 330 325 323 320 315 293 269 275 286 282 261 244 255 275 192 207 192 155 154 172 171 143 82 20 61 31 339 318 333 344 339 335 312 80 53 37 36 20 31 49 46 45
184 188 198 134 156 175 189 152 158 139 176 196 151 123 140 153 153 141 157 151 128 120 159 171 121 91 56 35 23 319 346 334 309 318 326 329 323 321 319 331 337 334 330 328 325 324 325 319 316 326 324 290 268 275 268 251 251 252 217 233 188 172 198 156 161 164 160 161 240 315 322 313 329 336 307 320 319 70 64 54 39 23 40 38 41
154 212 215 133 144 197 167 172 147 127 144 76 32 67 106 138 106 103 118 132 129 147 143 180 207 77 18 43 31 341 345 328 307 308 287 293 304 306 316 323 318 322 325 325 323 326 325 322 323 321 315 324 310 277 277 271 246 263 282 286 168 214 211 192 165 170 178 173 175 240 245 304 296 266 319 313 281 106 69 43 42 18 25 47 34
330 154 151 116 131 128 93 60 91 102 102 121 134 138 148 117 88 108 117 123 131 142 125 139 227 261 313 6 326 321 348 310 304 302 302 282 278 290 307 316 311 318 320 323 325 325 323 323 327 327 325 322 319 320 295 275 263 257 274 275 280 231 224 195 168 187 195 161 207 257 280 262 284 272 237 262 280 262 220 133 358 336 319 328 308
35 23 14 8 30 42 23 21 18 40 108 121 149 194 133 128 115 147 157 165 178 141 182 233 224 282 288 337 296 304 314 295 286 285 287 283 296 299 299 304 314 318 321 318 326 326 325 326 327 327 328 326 326 320 319 294 269 273 258 267 270 276 258 213 170 191 175 158 180 227 243 256 234 272 259 216 242 255 275 282 294 307 299 288 275
43 52 47 52 49 44 34 28 35 44 30 16 7 10 9 50 66 95 97 147 126 123 71 310 311 316 318 324 301 301 260 272 279 275 271 292 298 291 297 294 292 294 308 309 318 319 330 330 326 326 326 332 334 333 327 319 293 281 284 284 277 287 282 266 177 187 182 175 188 211 262 264 271 269 299 299 269 258 255 265 275 279 287 288 273
39 40 60 59 68 63 55 54 60 63 52 41 41 33 25 31 28 12 354 357 356 9 12 358 349 330 335 319 314 305 293 280 283 285 303 305 294 292 282 280 273 270 279 287 292 308 324 325 325 324 328 333 332 328 325 322 310 286 285 294 299 300 301 262 207 205 217 185 190 192 209 264 293 287 280 283 287 274 264 264 272 273 276 270 266
48 49 52 52 50 56 45 48 57 70 75 78 72 68 59 50 42 47 63 17 26 9 9 9 346 321 311 314 308 311 300 302 292 286 285 267 275 275 276 270 275 276 280 287 286 298 300 315 324 328 334 333 329 326 324 321 318 306 290 288 292 299 298 283 258 268 278 211 188 198 200 217 256 272 266 269 281 282 270 262 262 267 262 259 252
44 46 58 56 48 55 51 50 57 70 71 55 46 33 83 87 88 69 106 112 86 49 6 332 271 280 281 277 279 262 274 275 272 280 277 274 263 271 282 290 293 292 301 312 317 317 314 316 320 322 326 325 322 320 321 320 321 322 314 297 289 293 292 289 274 272 276 281 261 255 196 216 237 254 270 275 275 273 270 266 264 262 261 261 261
42 43 47 48 47 43 46 38 46 52 60 70 57 24 48 39 43 32 15 31 53 37 295 265 270 253 260 260 244 240 243 236 258 266 280 300 301 291 283 285 307 306 320 319 312 309 319 322 321 318 312 321 315 314 313 311 316 317 315 313 307 298 295 285 267 264 266 272 269 264 247 233 242 244 254 265 265 270 273 268 263 259 261 260 259
29 35 47 44 44 41 39 36 37 52 57 47 37 32 16 40 44 22 18 54 55 18 287 317 283 279 304 300 260 271 247 242 251 270 318 289 281 284 293 319 298 299 296 301 299 303 307 303 297 293 298 301 305 308 306 307 309 308 305 306 304 302 298 291 284 277 271 262 264 262 254 254 249 248 260 267 265 264 264 269 267 264 262 261 261
31 37 43 47 46 41 41 36 32 41 51 46 35 28 9 30 56 30 27 52 32 356 329 287 321 348 342 288 304 247 275 288 342 343 281 278 258 292 317 294 279 298 326 323 309 307 287 279 277 276 274 279 282 276 287 293 298 298 295 295 295 295 295 292 283 278 273 260 262 265 258 254 254 259 260 260 261 263 269 266 264 262 261 260 261
39 43 45 47 53 50 48 50 44 48 55 52 45 35 27 28 11 13 11 42 60 327 313 313 42 12 323 330 326 321 345 45 22 8 307 284 343 302 286 275 295 324 310 290 285 276 273 276 275 275 275 280 280 287 287 280 277 280 288 287 288 288 288 291 290 282 275 269 259 255 257 254 254 258 258 254 256 256 264 268 266 266 261 259 259
36 36 43 35 43 50 45 45 44 42 52 50 40 38 30 27 23 26 5 35 49 11 2 23 351 287 245 278 4 337 358 52 353 333 322 17 316 287 267 280 303 307 303 293 285 286 285 288 285 282 286 283 284 284 280 279 276 279 279 283 285 284 285 284 283 286 286 276 264 262 258 251 251 261 254 246 246 253 258 267 271 266 263 263 263
39 40 44 41 37 40 39 40 41 33 42 49 41 38 28 26 23 27 20 29 17 16 29 0 12 334 5 1 313 346 317 65 349 313 342 301 320 312 343 308 305 292 280 282 292 294 290 291 284 283 282 281 279 274 272 269 277 273 267 271 274 275 276 277 278 279 279 286 279 262 259 262 260 257 250 225 237 240 236 231 249 264 264 260 257
44 44 47 47 42 42 43 41 41 33 36 44 45 39 36 34 26 34 35 35 29 16 18 8 8 15 348 337 342 325 359 322 332 309 16 357 314 360 323 271 306 319 303 291 288 278 281 282 274 275 271 272 268 266 266 268 268 264 269 262 261 266 270 274 276 274 273 274 278 274 269 263 262 268 272 264 224 227 231 225 230 237 256 260 256
45 46 46 45 46 43 43 43 38 35 32 37 34 30 28 27 22 28 32 25 36 40 20 9 33 35 24 17 347 318 319 318 338 319 297 264 260 242 263 287 9 329 315 298 296 290 270 275 267 270 265 262 265 265 263 266 260 261 257 261 257 257 257 264 268 272 272 268 266 266 267 266 265 265 269 253 221 223 225 224 229 230 235 251 255
39 41 44 44 46 42 42 44 43 41 32 36 35 30 27 24 12 25 25 19 25 50 34 3 6 35 8 11 4 321 320 321 326 320 319 352 194 297 297 337 15 349 314 297 289 290 280 267 274 267 267 259 261 261 260 260 256 256 261 263 264 259 256 255 256 263 269 271 268 264 262 264 265 264 267 262 237 233 229 223 226 227 227 236 249
37 38 39 40 41 43 38 40 42 37 33 38 36 25 27 27 29 28 30 31 23 33 32 24 29 4 357 13 3 0 348 247 252 305 301 310 315 182 185 30 341 313 298 293 287 281 288 279 272 271 266 262 255 255 257 257 259 259 259 260 263 263 261 259 257 253 257 263 267 268 265 261 262 263 264 266 252 236 237 234 234 228 229 231 242
39 39 37 38 39 41 37 39 39 35 33 34 31 30 32 28 23 26 27 29 32 21 34 24 17 16 353 8 359 5 338 356 43 90 324 318 301 319 317 305 281 252 277 265 273 270 271 278 277 274 273 269 262 255 259 260 260 253 257 262 264 267 268 267 263 257 252 252 258 263 267 267 264 261 263 264 268 255 237 237 238 235 231 230 235
38 39 39 37 39 39 40 38 36 34 33 31 28 27 25 27 26 29 27 31 26 29 36 22 24 20 25 360 13 350 358 11 22 350 304 229 295 313 316 325 324 317 314 294 287 284 276 271 271 265 268 270 269 265 256 257 259 262 260 260 266 270 273 274 272 269 265 260 255 255 261 265 268 267 264 263 264 259 242 241 238 242 244 244 240
36 38 39 34 38 39 40 39 39 36 32 28 26 21 17 21 22 27 32 29 22 19 25 28 20 20 19 19 14 9 360 340 330 332 322 305 307 299 307 304 298 307 320 315 295 275 272 275 277 274 272 271 274 273 268 269 272 264 264 267 269 269 271 271 271 270 268 266 265 263 260 260 262 264 267 267 266 266 259 247 245 240 236 238 237
39 38 34 29 31 36 36 37 35 31 32 28 25 19 15 19 24 24 23 22 19 20 19 20 13 13 17 7 1 356 350 340 327 317 312 306 297 295 303 310 298 225 304 306 283 279 265 258 259 272 273 278 279 280 283 279 275 271 271 273 271 273 274 273 273 272 270 267 266 265 264 261 261 260 261 264 268 268 265 261 253 246 244 238 233
33 37 31 26 28 31 31 31 30 29 26 26 24 21 17 21 23 21 21 24 13 3 16 12 8 12 349 342 340 347 345 330 319 314 310 297 289 295 288 300 295 302 296 297 307 240 260 261 260 257 272 276 277 281 281 283 284 293 292 291 287 284 279 277 277 277 276 276 276 274 271 267 263 261 261 261 263 265 268 265 260 257 249 244 239
40 40 29 27 34 34 35 37 34 29 27 24 23 21 16 20 19 18 15 18 6 3 1 0 357 5 348 340 353 343 326 330 320 317 314 317 308 302 306 300 285 293 300 304 188 326 287 228 253 244 256 261 268 277 285 291 297 295 310 304 294 286 285 283 280 277 276 274 273 274 274 272 269 265 262 262 262 263 265 266 265 260 257 253 242
45 35 30 35 32 31 33 33 29 27 23 23 20 18 15 13 18 14 11 11 4 2 0 2 356 355 352 345 328 328 329 327 324 315 315 304 299 304 312 312 304 267 291 290 302 249 262 260 247 253 254 259 268 273 279 294 295 301 309 300 293 288 282 283 283 282 281 279 278 275 272 270 269 268 266 263 263 264 265 265 265 264 259 255 253
44 35 26 31 27 27 27 30 24 24 22 20 16 15 11 9 8 9 6 1 359 359 358 354 352 347 342 335 330 326 328 325 323 317 313 308 301 297 297 291 299 307 314 303 278 289 209 263 294 235 242 255 261 257 294 292 287 299 297 290 291 291 278 281 282 283 281 279 276 275 273 270 269 268 267 265 264 263 263 264 265 269 275 272 262
38 32 27 26 26 25 24 25 22 18 19 16 12 10 7 6 7 1 360 356 354 352 350 349 342 337 335 333 327 320 321 320 314 309 307 301 294 287 280 282 292 288 301 299 297 309 309 129 317 289 228 271 301 323 308 295 301 300 290 283 279 281 273 278 281 282 280 277 274 271 269 269 268 267 265 264 264 262 262 260 259 258 262 267 270
36 32 29 29 27 22 25 23 22 19 18 10 9 5 2 4 359 358 348 346 346 346 346 343 337 331 326 324 321 316 313 314 310 306 303 301 298 295 288 275 262 270 277 284 287 282 291 283 250 279 1 340 321 302 307 297 294 290 284 285 283 279 273 276 279 280 279 278 277 274 270 267 266 264 263 262 261 261 261 261 261 259 257 258 259
35 34 29 31 27 20 25 21 19 19 16 11 6 6 360 358 352 348 347 350 345 339 336 338 329 328 325 322 320 313 315 312 307 305 300 297 297 295 289 280 267 256 268 274 282 274 200 294 268 289 307 305 303 297 294 282 286 288 282 277 276 282 284 281 274 276 277 278 276 274 272 269 267 265 264 262 262 262 261 260 259 259 258 257 258
38 34 35 34 25 23 22 22 16 17 13 11 8 4 357 359 350 346 343 344 339 334 330 330 325 324 319 318 316 315 314 309 304 303 304 302 298 295 291 286 276 263 261 269 266 275 264 273 288 287 290 300 296 294 291 285 279 272 274 271 275 279 278 276 282 277 275 274 272 272 270 269 267 265 263 262 262 262 262 261 261 259 258 257 257
32 29 31 27 22 20 19 19 18 11 10 5 3 357 354 350 348 340 339 340 336 330 328 325 327 323 321 315 313 310 309 305 303 304 302 299 297 291 287 285 282 276 271 271 274 282 282 237 265 286 293 299 290 287 290 288 285 282 271 267 274 272 268 268 272 277 274 274 272 269 268 267 266 265 264 261 260 260 260 261 261 260 257 256 256
35 34 30 22 20 15 15 14 11 9 5 2 356 353 348 345 342 340 336 336 332 327 328 323 325 323 317 312 311 310 307 301 301 300 300 299 297 293 288 286 282 284 273 276 278 279 287 288 280 282 287 283 284 279 285 296 292 288 284 284 273 253 265 261 262 265 268 273 269 267 265 265 265 266 265 262 260 259 259 258 258 257 256 255 252
37 40 27 23 18 15 17 13 9 6 1 355 348 344 339 336 332 330 330 329 325 323 321 317 316 313 310 307 307 309 310 306 301 297 296 293 291 289 289 286 285 282 281 273 279 282 285 288 285 285 285 287 284 293 285 275 282 286 287 281 277 275 262 258 261 253 257 263 267 268 269 268 267 265 264 263 262 260 258 257 256 255 253 250 247
33 25 24 16 14 13 10 11 8 1 356 347 341 336 331 330 327 323 323 319 313 311 311 312 315 314 312 312 310 315 312 306 303 303 300 298 299 296 292 290 286 285 282 278 271 276 285 289 288 286 290 289 284 286 290 279 276 275 270 280 276 269 267 258 256 263 252 258 263 266 269 270 268 266 265 264 262 260 259 257 256 254 253 249 244
23 15 14 12 11 13 6 6 357 358 352 341 334 331 330 329 326 321 320 318 317 314 312 311 312 314 312 310 310 312 311 307 305 304 305 304 300 295 291 291 288 286 283 280 278 275 279 280 285 283 284 280 277 279 284 290 289 277 269 265 273 276 274 262 255 255 259 261 263 264 265 266 267 268 267 265 264 261 259 257 255 254 252 251 245
20 9 12 11 5 6 358 358 346 346 341 333 328 330 331 329 324 319 315 313 312 312 310 312 314 313 310 309 311 312 312 310 308 309 307 304 302 295 292 292 291 288 285 283 280 279 277 278 282 289 284 284 286 274 277 279 287 293 293 290 281 273 280 280 259 251 242 245 250 255 257 261 262 264 265 264 264 262 260 257 256 253 252 251 249
20 11 10 9 357 3 353 356 348 344 337 330 326 327 327 326 322 321 323 322 320 319 319 317 317 315 313 313 312 314 312 312 310 310 310 308 303 301 300 300 296 294 291 289 288 284 280 281 282 281 287 285 280 285 284 281 282 283 293 299 295 280 266 269 281 268 242 241 243 253 259 257 253 255 258 260 261 260 260 259 257 254 252 250 250
21 16 6 359 355 357 351 347 344 341 330 322 327 324 321 327 326 325 322 321 320 318 317 317 319 318 316 315 313 312 312 310 308 308 309 307 306 302 304 304 302 300 296 294 292 289 287 287 285 288 285 287 287 281 285 286 283 281 276 287 290 293 293 289 279 285 281 269 258 249 246 257 259 256 257 258 258 259 259 260 258 256 254 252 250
16 10 360 352 351 351 349 343 341 333 326 324 328 327 329 328 326 320 320 318 317 316 316 316 316 315 314 312 309 309 309 307 305 303 300 301 303 302 302 303 302 301 298 297 296 295 290 288 288 286 288 288 288 293 293 288 284 286 294 293 287 285 288 288 283 272 270 276 274 259 241 246 258 252 246 249 246 252 257 254 257 257 254 253 251
6 3 353 351 358 348 346 339 339 333 323 316 312 321 323 322 320 317 313 312 313 313 313 313 312 311 310 310 307 306 306 305 302 299 299 299 296 294 298 304 303 301 298 297 295 294 294 293 291 296 294 291 295 297 297 294 291 288 283 279 279 286 287 284 284 279 277 265 271 272 257 241 243 255 249 251 248 239 247 249 242 245 247 246 247
358 0 348 355 357 346 344 339 333 329 316 309 317 322 322 321 318 313 310 309 310 309 307 307 307 309 308 308 307 307 305 303 300 298 299 300 300 300 299 298 297 296 298 297 294 294 292 288 289 290 291 293 296 303 304 312 318 318 305 291 287 291 292 295 291 292 283 277 279 278 278 261 237 254 254 249 249 235 233 239 241 246 245 247 246
355 347 350 355 344 341 335 333 329 321 312 312 321 320 319 318 316 313 310 307 306 303 303 302 303 305 306 306 304 302 299 299 301 301 299 299 300 300 301 300 300 300 299 299 300 299 295 292 289 286 290 290 294 295 294 296 299 296 298 304 303 303 301 299 297 292 296 307 306 296 287 283 260 249 257 248 250 236 229 236 235 242 245 247 247
334 346 345 340 334 337 330 327 324 319 307 312 316 316 315 316 315 313 305 302 299 299 301 302 302 302 301 301 301 297 298 300 300 298 297 298 298 297 298 300 301 299 297 296 296 294 296 292 290 290 291 298 295 293 297 297 295 291 290 284 283 282 283 285 284 287 285 293 290 286 284 280 276 261 267 260 248 246 239 240 243 241 243 247 247
338 329 325 326 329 328 325 319 313 309 304 305 312 312 314 312 311 310 301 301 299 299 299 297 294 294 295 295 297 297 296 297 295 294 294 293 293 294 292 290 284 281 286 290 288 288 287 283 285 286 291 290 288 294 299 301 301 299 296 291 290 287 281 275 276 273 279 280 277 282 279 275 269 270 269 270 262 262 252 248 241 241 242 243 245
327 321 321 318 313 313 309 309 304 300 294 306 309 311 310 310 308 310 306 302 296 290 289 289 290 291 291 289 290 292 293 292 290 288 290 291 290 281 274 268 266 269 269 270 272 273 276 279 279 282 286 287 287 289 290 286 281 279 275 275 278 276 277 276 270 268 271 267 265 264 272 277 268 267 267 270 270 263 256 257 242 243 243 243 243
286 297 296 298 299 302 301 298 297 292 291 306 308 308 309 309 310 310 302 293 288 286 286 289 289 290 287 287 288 287 286 286 283 287 288 288 286 280 275 272 266 264 260 257 268 273 277 281 281 281 281 280 281 283 285 288 288 288 288 289 292 301 301 294 286 286 274 270 256 249 259 264 262 261 268 270 270 267 257 249 244 243 243 244 244
305 299 289 290 292 292 293 288 291 289 287 304 308 309 310 311 312 301 293 289 287 286 284 287 289 290 289 286 282 281 281 282 281 285 289 291 284 275 274 273 269 268 267 261 264 273 278 278 278 279 282 285 287 288 290 292 292 292 293 293 292 300 290 288 288 293 292 301 293 265 261 269 272 271 273 269 267 264 261 256 247 242 241 245 246
300 287 293 290 277 276 281 284 284 291 289 305 310 311 310 308 307 302 296 288 283 281 280 279 286 289 283 275 276 277 277 280 283 284 285 286 283 281 275 274 274 269 268 263 258 257 263 271 274 276 277 281 286 288 291 291 291 291 288 283 289 290 282 284 287 286 287 277 270 292 290 281 286 277 278 275 272 252 259 259 252 246 241 244 246
283 290 290 291 282 276 264 271 290 294 292 299 306 306 306 305 305 298 292 286 283 287 289 290 286 279 275 270 271 277 284 285 288 291 291 290 284 278 275 273 271 262 265 258 262 265 259 253 256 261 267 272 274 272 271 277 282 282 280 280 284 279 278 278 279 285 281 268 265 257 266 272 274 271 264 269 267 267 250 249 246 242 237 232 242